Regional Weather Roundup
Issued by NWS Newport/Morehead, NC

Current Version | Previous Version | Graphics & Text | Print | Product List | Glossary Off
Versions: 1 2 3 4 5 6 7 8 9 10 11 12 13 14 15 16 17 18 19 20 21 22 23 24 25 26 27 28 29 30 31 32 33 34 35 36 37 38 39 40 41 42 43 44 45 46 47 48 49 50

000
ASUS42 KMHX 292125
RWRMHX
WEATHER ROUNDUP FOR EASTERN NORTH CAROLINA
NATIONAL WEATHER SERVICE NEWPORT/MOREHEAD CITY NC
500 PM EDT FRI JUL 29 2016

NOTE: "FAIR" INDICATES FEW OR NO CLOUDS BELOW 12,000 FEET
WITH NO SIGNIFICANT WEATHER AND/OR OBSTRUCTIONS TO VISIBILITY

NCZ015>017-031-032-045>047-102-103-292200-
NORTH COAST

CITY           SKY/WX    TMP DP  RH WIND       PRES   REMARKS
EDENTON        MOSUNNY   92  70  49 NW6       29.88S
ELIZABETH CITY CLOUDY    88  72  58 W10       29.86S
KITTY HAWK     PTCLDY    87  76  68 NE5       29.87R
MANTEO           N/A     84  79  86 E9        29.87S

$$

NCZ045>047-081-094-103-104-292200-
CENTRAL COAST

CITY           SKY/WX    TMP DP  RH WIND       PRES   REMARKS
FRISCO         SUNNY     84  78  82 SW13      29.88F

$$

NCZ095-097-098-100-101-292200-
SOUTHERN COAST

CITY           SKY/WX    TMP DP  RH WIND       PRES   REMARKS
BEAUFORT       MOSUNNY   88  79  74 SW18G24   29.88F HX 103
CEDAR ISLAND   NOT AVBL
JACKSONVILLE   PTSUNNY   94  71  47 W7        29.87F HX 101
PINEY ISLAND   NOT AVBL
WILMINGTON     SUNNY     94  71  47 W17G23    29.89S HX 101


$$

NCZ011>013-027>030-043-044-078>080-089-090>093-098-292200-
COASTAL PLAIN

CITY           SKY/WX    TMP DP  RH WIND       PRES   REMARKS
AHOSKIE        MOSUNNY   84  74  72 CALM      29.89S
CLINTON        SUNNY     94  71  47 N5        29.90S HX 101
ELIZABETHTOWN  PTSUNNY   94  72  47 W9        29.90S HX 101
GOLDSBORO      MOSUNNY   95  68  41 W9        29.88S
GREENVILLE     SUNNY     91  72  52 W6        29.90S
HAVELOCK       PTSUNNY   92  77  61 SW8       29.88S HX 105
KENANSVILLE    NOT AVBL
KINSTON        CLOUDY    93  68  43 NW12      29.89F
NEW BERN       MOSUNNY   92  72  51 W6        29.88F
RICHLANDS      SUNNY     95  72  47 NW8       29.89S HX 103
ROCKY MOUNT    MOSUNNY   91  72  53 W8        29.89S
WASHINGTON     MOSUNNY   89  76  64 NW6       29.88R HX 100
WHITEVILLE     MOSUNNY   93  73  52 CALM      29.90S HX 102

$$

AMZ130-135-150-152-154-156-158-170-250-252-270-ANZ085-086-088-633-658-670-292200-
MARINE OBSERVATIONS

STATION/POSITION TIME  TEMP    WIND        PRES    WAVE   SWELL
                       AIR SEA DIR/SP/G            HT/PER HT/PER
                 (UTC) (F)     (DEG/KT/KT) (MB)    (FT/S) (FT/S)
CHESAPEAKE LIGHT NOT AVBL
64 E VA BEACH    2050   83 84  280/  6/  8 1011.2    3/ 6   2/ 6
DUCK             2100   83 68  100/  5/  5 1010.9
2 E DUCK         2011      78                N/A     1/ 9
OREGON INLET     2100   86 84   30/  4/  5 1011.4
13E OREGON INLT  2100      81                N/A     3/ 6   2/ 6
HATTERAS CG      2100   85 84  210/ 12/ 15 1011.6
DIAMOND BUOY     2050   87 85  230/ 17/ 21 1011.8    3/ 6   2/ 9
CAPE LOOKOUT     2100   86     230/ 12/ 18 1011.9
BEAUFORT LAB     2100   87 83  220/  8/ 12 1011.4
30 SE NEW RVR IN 2108   86 85  220/ 17/ 21 1012.2
30 SE NEW RVR IN 2025      85                N/A     5/ 6
27 SE WRIGHTSVLE 2108   86 84  220/ 17/ 21 1012.6
5 SE WRIGHTSVLE  2008   83 80  220/ 14/ 17 1012.9
225 S CAPE HAT   2050   85 86  240/ 10/ 12 1015.5    4/ 6   3/ 6
41 SE CHARLESTON 2050   86 86  210/ 17/ 21 1013.2    3/ 5   2/ 8

$$



USA.gov is the U.S. government's official web portal to all federal, state and local government web resources and services.